{"data":{"norad_id":52557,"intl_designator":"2022-051AA","name":"STARLINK-3943","alt_names":[],"object_type":"PAYLOAD","status":"ACTIVE","operator":null,"country":"US","launch_date":"2022-05-13","launch_site_code":"AFWTR","launch_vehicle":null,"mission":null,"orbit_class":"UNKNOWN","rcs_meters":null,"size_class":null,"mass_kg":null,"dimensions":null,"purposes":["comms"],"wikipedia_slug":null,"has_3d_model":false,"image_url":null,"decayed_at":null,"tle_current":{"epoch":"2026-05-25T03:48:14.202144Z","epoch_age_seconds":64622,"freshness":"FRESH","line1":"1 52557U 22051AA  26145.15849771 -.00001787  00000+0 -94259-4 0  9991","line2":"2 52557  53.2149 145.8404 0001013  84.7354 275.3754 15.08834344222999","mean_motion":15.08834344,"eccentricity":0.0001013,"inclination_deg":53.2149,"raan_deg":145.8404,"arg_perigee_deg":84.7354,"mean_anomaly_deg":275.3754,"bstar":-9.4259e-5,"rev_number":22299,"period_min":95.437912433944,"perigee_km":539.0598941127,"apogee_km":540.46146018209,"semimajor_km":6917.8976771474,"source":"CELESTRAK","updated_at":"2026-05-25T13:38:17.165689Z"}}}